owner,sensor,date,latitude,longitude,vertical_datum,mass_concentration_of_oxygen_in_sea_water,qcFlag 
SCCF RECON,ioos:station:SCCF:11:1,2017-04-01T00:00:00Z,26.4679,-82.0631,1.89,6.03,1111122 
SCCF RECON,ioos:station:SCCF:11:1,2017-04-01T01:00:00Z,26.4679,-82.0631,1.73,5.86,1111122 
SCCF RECON,ioos:station:SCCF:11:1,2017-04-01T02:00:00Z,26.4679,-82.0631,1.59,5.61,1111122 
SCCF RECON,ioos:station:SCCF:11:1,2017-04-01T03:00:00Z,26.4679,-82.0631,1.49,5.44,1111122 
SCCF RECON,ioos:station:SCCF:11:1,2017-04-01T04:00:00Z,26.4679,-82.0631,1.46,5.67,1111122 
SCCF RECON,ioos:station:SCCF:11:1,2017-04-01T05:00:00Z,26.4679,-82.0631,1.539,5.44,1111122 
SCCF RECON,ioos:station:SCCF:11:1,2017-04-01T06:00:00Z,26.4679,-82.0631,1.68,5.31,1111122 
SCCF RECON,ioos:station:SCCF:11:1,2017-04-01T07:00:00Z,26.4679,-82.0631,1.81,5.3,1111122 
SCCF RECON,ioos:station:SCCF:11:1,2017-04-01T08:00:00Z,26.4679,-82.0631,1.91,5.19,1111122 
SCCF RECON,ioos:station:SCCF:11:1,2017-04-01T09:00:00Z,26.4679,-82.0631,1.98,5.24,1111122 
SCCF RECON,ioos:station:SCCF:11:1,2017-04-01T10:00:00Z,26.4679,-82.0631,2.0,5.3,1111122 
SCCF RECON,ioos:station:SCCF:11:1,2017-04-01T11:00:00Z,26.4679,-82.0631,1.97,5.23,1111122 
SCCF RECON,ioos:station:SCCF:11:1,2017-04-01T12:00:00Z,26.4679,-82.0631,1.88,5.16,1111122 
SCCF RECON,ioos:station:SCCF:11:1,2017-04-01T13:00:00Z,26.4679,-82.0631,1.82,5.07,1111122 
SCCF RECON,ioos:station:SCCF:11:1,2017-04-01T14:00:00Z,26.4679,-82.0631,1.772,5.17,1111122 
SCCF RECON,ioos:station:SCCF:11:1,2017-04-01T15:00:00Z,26.4679,-82.0631,1.74,5.17,1111122 
SCCF RECON,ioos:station:SCCF:11:1,2017-04-01T16:00:00Z,26.4679,-82.0631,1.74,5.31,1111122 
SCCF RECON,ioos:station:SCCF:11:1,2017-04-01T17:00:00Z,26.4679,-82.0631,1.83,5.63,1111122 
SCCF RECON,ioos:station:SCCF:11:1,2017-04-01T18:00:00Z,26.4679,-82.0631,1.95,5.6,1111122 
SCCF RECON,ioos:station:SCCF:11:1,2017-04-01T19:00:00Z,26.4679,-82.0631,2.06,5.97,1111122 
SCCF RECON,ioos:station:SCCF:11:1,2017-04-01T20:00:00Z,26.4679,-82.0631,2.128,5.95,1111122 
SCCF RECON,ioos:station:SCCF:11:1,2017-04-01T21:00:00Z,26.4679,-82.0631,2.15,6.07,1111122 
SCCF RECON,ioos:station:SCCF:11:1,2017-04-01T22:00:00Z,26.4679,-82.0631,2.1,6.58,1111122 
SCCF RECON,ioos:station:SCCF:11:1,2017-04-01T23:00:00Z,26.4679,-82.0631,2.0,7.47,1111122 
SCCF RECON,ioos:station:SCCF:11:1,2017-04-02T00:00:00Z,26.4679,-82.0631,1.88,7.18,1111122 
SCCF RECON,ioos:station:SCCF:11:1,2017-04-02T01:00:00Z,26.4679,-82.0631,1.76,6.94,1111122 
SCCF RECON,ioos:station:SCCF:11:1,2017-04-02T02:00:00Z,26.4679,-82.0631,1.635,6.7,1111122 
SCCF RECON,ioos:station:SCCF:11:1,2017-04-02T03:00:00Z,26.4679,-82.0631,1.52,6.41,1111122 
SCCF RECON,ioos:station:SCCF:11:1,2017-04-02T04:00:00Z,26.4679,-82.0631,1.42,6.09,1111122 
SCCF RECON,ioos:station:SCCF:11:1,2017-04-02T05:00:00Z,26.4679,-82.0631,1.38,6.04,1111122 
SCCF RECON,ioos:station:SCCF:11:1,2017-04-02T06:00:00Z,26.4679,-82.0631,1.42,6.09,1111122 
SCCF RECON,ioos:station:SCCF:11:1,2017-04-02T07:00:00Z,26.4679,-82.0631,1.55,5.91,1111122 
SCCF RECON,ioos:station:SCCF:11:1,2017-04-02T08:00:00Z,26.4679,-82.0631,1.679,5.88,1111122 
SCCF RECON,ioos:station:SCCF:11:1,2017-04-02T09:00:00Z,26.4679,-82.0631,1.77,5.58,1111122 
SCCF RECON,ioos:station:SCCF:11:1,2017-04-02T10:00:00Z,26.4679,-82.0631,1.85,5.48,1111122 
SCCF RECON,ioos:station:SCCF:11:1,2017-04-02T11:00:00Z,26.4679,-82.0631,1.909,5.38,1111122 
SCCF RECON,ioos:station:SCCF:11:1,2017-04-02T12:00:00Z,26.4679,-82.0631,1.9,5.65,1111122 
SCCF RECON,ioos:station:SCCF:11:1,2017-04-02T13:00:00Z,26.4679,-82.0631,1.86,5.67,1111122 
SCCF RECON,ioos:station:SCCF:11:1,2017-04-02T14:00:00Z,26.4679,-82.0631,1.83,5.63,1111122 
SCCF RECON,ioos:station:SCCF:11:1,2017-04-02T15:00:00Z,26.4679,-82.0631,1.82,5.73,1111122 
SCCF RECON,ioos:station:SCCF:11:1,2017-04-02T16:00:00Z,26.4679,-82.0631,1.811,5.97,1111122 
SCCF RECON,ioos:station:SCCF:11:1,2017-04-02T17:00:00Z,26.4679,-82.0631,1.827,6.23,1111122 
SCCF RECON,ioos:station:SCCF:11:1,2017-04-02T18:00:00Z,26.4679,-82.0631,1.86,5.94,1111122 
SCCF RECON,ioos:station:SCCF:11:1,2017-04-02T19:00:00Z,26.4679,-82.0631,1.95,6.38,1111122 
SCCF RECON,ioos:station:SCCF:11:1,2017-04-02T20:00:00Z,26.4679,-82.0631,2.04,6.51,1111122 
SCCF RECON,ioos:station:SCCF:11:1,2017-04-02T21:00:00Z,26.4679,-82.0631,2.08,6.36,1111122 
SCCF RECON,ioos:station:SCCF:11:1,2017-04-02T22:00:00Z,26.4679,-82.0631,2.09,6.59,1111122 
SCCF RECON,ioos:station:SCCF:11:1,2017-04-02T23:00:00Z,26.4679,-82.0631,2.06,5.82,1111122 
SCCF RECON,ioos:station:SCCF:11:1,2017-04-03T00:00:00Z,26.4679,-82.0631,2.07,7.24,1111122 
SCCF RECON,ioos:station:SCCF:11:1,2017-04-03T01:00:00Z,26.4679,-82.0631,1.97,7.61,1111122 
SCCF RECON,ioos:station:SCCF:11:1,2017-04-03T02:00:00Z,26.4679,-82.0631,1.824,6.81,1111122 
SCCF RECON,ioos:station:SCCF:11:1,2017-04-03T03:00:00Z,26.4679,-82.0631,1.7,6.66,1111122 
SCCF RECON,ioos:station:SCCF:11:1,2017-04-03T04:00:00Z,26.4679,-82.0631,1.59,6.42,1111122 
SCCF RECON,ioos:station:SCCF:11:1,2017-04-03T05:00:00Z,26.4679,-82.0631,1.49,6.04,1111122 
SCCF RECON,ioos:station:SCCF:11:1,2017-04-03T06:00:00Z,26.4679,-82.0631,1.44,5.7,1111122 
SCCF RECON,ioos:station:SCCF:11:1,2017-04-03T07:00:00Z,26.4679,-82.0631,1.45,5.9,1111122 
SCCF RECON,ioos:station:SCCF:11:1,2017-04-03T08:00:00Z,26.4679,-82.0631,1.55,5.63,1111122 
SCCF RECON,ioos:station:SCCF:11:1,2017-04-03T09:00:00Z,26.4679,-82.0631,1.67,5.55,1111122 
SCCF RECON,ioos:station:SCCF:11:1,2017-04-03T10:00:00Z,26.4679,-82.0631,1.78,5.31,1111122 
SCCF RECON,ioos:station:SCCF:11:1,2017-04-03T11:00:00Z,26.4679,-82.0631,1.86,5.43,1111122 
SCCF RECON,ioos:station:SCCF:11:1,2017-04-03T12:00:00Z,26.4679,-82.0631,1.92,5.23,1111122 
SCCF RECON,ioos:station:SCCF:11:1,2017-04-03T13:00:00Z,26.4679,-82.0631,1.95,5.19,1111122 
SCCF RECON,ioos:station:SCCF:11:1,2017-04-03T14:00:00Z,26.4679,-82.0631,1.96,5.19,1111122 
SCCF RECON,ioos:station:SCCF:11:1,2017-04-03T15:00:00Z,26.4679,-82.0631,1.95,5.29,1111122 
SCCF RECON,ioos:station:SCCF:11:1,2017-04-03T16:00:00Z,26.4679,-82.0631,1.918,5.54,1111122 
SCCF RECON,ioos:station:SCCF:11:1,2017-04-03T17:00:00Z,26.4679,-82.0631,1.9,6.0,1111122 
SCCF RECON,ioos:station:SCCF:11:1,2017-04-03T18:00:00Z,26.4679,-82.0631,1.88,6.12,1111122 
SCCF RECON,ioos:station:SCCF:11:1,2017-04-03T19:00:00Z,26.4679,-82.0631,1.901,6.37,1111122 
SCCF RECON,ioos:station:SCCF:11:1,2017-04-03T20:00:00Z,26.4679,-82.0631,1.95,6.48,1111122 
SCCF RECON,ioos:station:SCCF:11:1,2017-04-03T21:00:00Z,26.4679,-82.0631,2.019,6.48,1111122 
SCCF RECON,ioos:station:SCCF:11:1,2017-04-03T22:00:00Z,26.4679,-82.0631,2.08,6.45,1111122 
SCCF RECON,ioos:station:SCCF:11:1,2017-04-03T23:00:00Z,26.4679,-82.0631,2.09,6.34,1111122 
SCCF RECON,ioos:station:SCCF:11:1,2017-04-04T00:00:00Z,26.4679,-82.0631,2.07,6.18,1111122 
SCCF RECON,ioos:station:SCCF:11:1,2017-04-04T01:00:00Z,26.4679,-82.0631,2.04,6.19,1111122 
SCCF RECON,ioos:station:SCCF:11:1,2017-04-04T02:00:00Z,26.4679,-82.0631,1.99,6.79,1111122 
SCCF RECON,ioos:station:SCCF:11:1,2017-04-04T03:00:00Z,26.4679,-82.0631,1.89,6.28,1111122 
SCCF RECON,ioos:station:SCCF:11:1,2017-04-04T04:00:00Z,26.4679,-82.0631,1.78,6.11,1111122 
SCCF RECON,ioos:station:SCCF:11:1,2017-04-04T05:00:00Z,26.4679,-82.0631,1.678,5.98,1111122 
SCCF RECON,ioos:station:SCCF:11:1,2017-04-04T06:00:00Z,26.4679,-82.0631,1.57,5.74,1111122 
SCCF RECON,ioos:station:SCCF:11:1,2017-04-04T07:00:00Z,26.4679,-82.0631,1.51,5.38,1111122 
SCCF RECON,ioos:station:SCCF:11:1,2017-04-04T08:00:00Z,26.4679,-82.0631,1.5,5.47,1111122 
SCCF RECON,ioos:station:SCCF:11:1,2017-04-04T09:00:00Z,26.4679,-82.0631,1.58,5.42,1111122 
SCCF RECON,ioos:station:SCCF:11:1,2017-04-04T10:00:00Z,26.4679,-82.0631,1.69,5.29,1111122 
SCCF RECON,ioos:station:SCCF:11:1,2017-04-04T11:00:00Z,26.4679,-82.0631,1.78,5.12,1111122 
SCCF RECON,ioos:station:SCCF:11:1,2017-04-04T12:00:00Z,26.4679,-82.0631,1.85,4.95,1111122 
SCCF RECON,ioos:station:SCCF:11:1,2017-04-04T13:00:00Z,26.4679,-82.0631,1.913,5.32,1111122 
SCCF RECON,ioos:station:SCCF:11:1,2017-04-04T14:00:00Z,26.4679,-82.0631,1.974,5.31,1111122 
SCCF RECON,ioos:station:SCCF:11:1,2017-04-04T15:00:00Z,26.4679,-82.0631,2.01,5.42,1111122 
SCCF RECON,ioos:station:SCCF:11:1,2017-04-04T16:00:00Z,26.4679,-82.0631,2.02,5.54,1111122 
SCCF RECON,ioos:station:SCCF:11:1,2017-04-04T17:00:00Z,26.4679,-82.0631,2.002,5.81,1111122 
SCCF RECON,ioos:station:SCCF:11:1,2017-04-04T18:00:00Z,26.4679,-82.0631,1.96,6.45,1111122 
SCCF RECON,ioos:station:SCCF:11:1,2017-04-04T19:00:00Z,26.4679,-82.0631,1.91,6.36,1111122 
SCCF RECON,ioos:station:SCCF:11:1,2017-04-04T20:00:00Z,26.4679,-82.0631,1.87,6.47,1111122 
SCCF RECON,ioos:station:SCCF:11:1,2017-04-04T21:00:00Z,26.4679,-82.0631,1.858,6.2,1111122 
SCCF RECON,ioos:station:SCCF:11:1,2017-04-04T22:00:00Z,26.4679,-82.0631,1.91,6.26,1111122 
SCCF RECON,ioos:station:SCCF:11:1,2017-04-04T23:00:00Z,26.4679,-82.0631,1.99,6.03,1111122 
SCCF RECON,ioos:station:SCCF:11:1,2017-04-05T00:00:00Z,26.4679,-82.0631,2.07,5.83,1111122 
SCCF RECON,ioos:station:SCCF:11:1,2017-04-05T01:00:00Z,26.4679,-82.0631,2.099,5.75,1111122 
SCCF RECON,ioos:station:SCCF:11:1,2017-04-05T02:00:00Z,26.4679,-82.0631,2.08,6.41,1111122 
SCCF RECON,ioos:station:SCCF:11:1,2017-04-05T03:00:00Z,26.4679,-82.0631,2.01,6.86,1111122 
SCCF RECON,ioos:station:SCCF:11:1,2017-04-05T04:00:00Z,26.4679,-82.0631,1.88,6.07,1111122 
SCCF RECON,ioos:station:SCCF:11:1,2017-04-05T05:00:00Z,26.4679,-82.0631,1.76,5.89,1111122 
SCCF RECON,ioos:station:SCCF:11:1,2017-04-05T06:00:00Z,26.4679,-82.0631,1.66,5.74,1111122 
SCCF RECON,ioos:station:SCCF:11:1,2017-04-05T07:00:00Z,26.4679,-82.0631,1.56,5.54,1111122 
SCCF RECON,ioos:station:SCCF:11:1,2017-04-05T08:00:00Z,26.4679,-82.0631,1.49,5.22,1111122 
SCCF RECON,ioos:station:SCCF:11:1,2017-04-05T09:00:00Z,26.4679,-82.0631,1.48,5.19,1111122 
SCCF RECON,ioos:station:SCCF:11:1,2017-04-05T10:00:00Z,26.4679,-82.0631,1.55,5.22,1111122 
SCCF RECON,ioos:station:SCCF:11:1,2017-04-05T11:00:00Z,26.4679,-82.0631,1.669,5.08,1111122 
SCCF RECON,ioos:station:SCCF:11:1,2017-04-05T12:00:00Z,26.4679,-82.0631,1.78,4.84,1111122 
SCCF RECON,ioos:station:SCCF:11:1,2017-04-05T13:00:00Z,26.4679,-82.0631,1.87,4.81,1111122 
SCCF RECON,ioos:station:SCCF:11:1,2017-04-05T14:00:00Z,26.4679,-82.0631,1.96,5.03,1111122 
SCCF RECON,ioos:station:SCCF:11:1,2017-04-05T15:00:00Z,26.4679,-82.0631,2.02,5.14,1111122 
SCCF RECON,ioos:station:SCCF:11:1,2017-04-05T16:00:00Z,26.4679,-82.0631,2.04,5.35,1111122 
SCCF RECON,ioos:station:SCCF:11:1,2017-04-05T17:00:00Z,26.4679,-82.0631,2.05,5.56,1111122 
SCCF RECON,ioos:station:SCCF:11:1,2017-04-05T18:00:00Z,26.4679,-82.0631,2.019,5.76,1111122 
SCCF RECON,ioos:station:SCCF:11:1,2017-04-05T19:00:00Z,26.4679,-82.0631,1.94,6.31,1111122 
SCCF RECON,ioos:station:SCCF:11:1,2017-04-05T20:00:00Z,26.4679,-82.0631,1.87,6.53,1111122 
SCCF RECON,ioos:station:SCCF:11:1,2017-04-05T21:00:00Z,26.4679,-82.0631,1.83,6.43,1111122 
SCCF RECON,ioos:station:SCCF:11:1,2017-04-05T22:00:00Z,26.4679,-82.0631,1.87,6.17,1111122 
SCCF RECON,ioos:station:SCCF:11:1,2017-04-05T23:00:00Z,26.4679,-82.0631,1.965,5.96,1111122 
SCCF RECON,ioos:station:SCCF:11:1,2017-04-06T00:00:00Z,26.4679,-82.0631,2.051,5.83,1111122 
SCCF RECON,ioos:station:SCCF:11:1,2017-04-06T01:00:00Z,26.4679,-82.0631,2.1,5.65,1111122 
SCCF RECON,ioos:station:SCCF:11:1,2017-04-06T02:00:00Z,26.4679,-82.0631,2.116,5.49,1111122 
SCCF RECON,ioos:station:SCCF:11:1,2017-04-06T03:00:00Z,26.4679,-82.0631,2.1,5.6,1111122 
SCCF RECON,ioos:station:SCCF:11:1,2017-04-06T04:00:00Z,26.4679,-82.0631,2.07,6.39,1111122 
SCCF RECON,ioos:station:SCCF:11:1,2017-04-06T05:00:00Z,26.4679,-82.0631,1.95,5.84,1111122 
SCCF RECON,ioos:station:SCCF:11:1,2017-04-06T06:00:00Z,26.4679,-82.0631,1.82,5.46,1111122 
SCCF RECON,ioos:station:SCCF:11:1,2017-04-06T07:00:00Z,26.4679,-82.0631,1.7,5.33,1111122 
SCCF RECON,ioos:station:SCCF:11:1,2017-04-06T08:00:00Z,26.4679,-82.0631,1.59,4.82,1111122 
SCCF RECON,ioos:station:SCCF:11:1,2017-04-06T09:00:00Z,26.4679,-82.0631,1.507,4.81,1111122 
SCCF RECON,ioos:station:SCCF:11:1,2017-04-06T10:00:00Z,26.4679,-82.0631,1.49,4.7,1111122 
SCCF RECON,ioos:station:SCCF:11:1,2017-04-06T11:00:00Z,26.4679,-82.0631,1.57,4.83,1111122 
SCCF RECON,ioos:station:SCCF:11:1,2017-04-06T12:00:00Z,26.4679,-82.0631,1.67,4.68,1111122 
SCCF RECON,ioos:station:SCCF:11:1,2017-04-06T13:00:00Z,26.4679,-82.0631,1.75,4.66,1111122 
SCCF RECON,ioos:station:SCCF:11:1,2017-04-06T14:00:00Z,26.4679,-82.0631,1.85,4.65,1111122 
SCCF RECON,ioos:station:SCCF:11:1,2017-04-06T15:00:00Z,26.4679,-82.0631,1.984,4.92,1111122 
SCCF RECON,ioos:station:SCCF:11:1,2017-04-06T16:00:00Z,26.4679,-82.0631,2.13,5.03,1111122 
SCCF RECON,ioos:station:SCCF:11:1,2017-04-06T17:00:00Z,26.4679,-82.0631,2.109,5.39,1111122 
SCCF RECON,ioos:station:SCCF:11:1,2017-04-06T18:00:00Z,26.4679,-82.0631,1.976,5.62,1111122 
SCCF RECON,ioos:station:SCCF:11:1,2017-04-06T19:00:00Z,26.4679,-82.0631,1.84,5.82,1111122 
SCCF RECON,ioos:station:SCCF:11:1,2017-04-06T20:00:00Z,26.4679,-82.0631,1.75,6.06,1111122 
SCCF RECON,ioos:station:SCCF:11:1,2017-04-06T21:00:00Z,26.4679,-82.0631,1.69,6.15,1111122 
SCCF RECON,ioos:station:SCCF:11:1,2017-04-06T22:00:00Z,26.4679,-82.0631,1.661,6.4,1111122 
SCCF RECON,ioos:station:SCCF:11:1,2017-04-06T23:00:00Z,26.4679,-82.0631,1.67,6.1,1111122 
SCCF RECON,ioos:station:SCCF:11:1,2017-04-07T00:00:00Z,26.4679,-82.0631,1.71,5.68,1111122 
SCCF RECON,ioos:station:SCCF:11:1,2017-04-07T01:00:00Z,26.4679,-82.0631,1.78,5.86,1111122 
SCCF RECON,ioos:station:SCCF:11:1,2017-04-07T02:00:00Z,26.4679,-82.0631,1.85,5.74,1111122 
SCCF RECON,ioos:station:SCCF:11:1,2017-04-07T03:00:00Z,26.4679,-82.0631,1.91,5.64,1111122 
SCCF RECON,ioos:station:SCCF:11:1,2017-04-07T04:00:00Z,26.4679,-82.0631,1.93,5.55,1111122 
SCCF RECON,ioos:station:SCCF:11:1,2017-04-07T05:00:00Z,26.4679,-82.0631,1.9,5.41,1111122 
SCCF RECON,ioos:station:SCCF:11:1,2017-04-07T06:00:00Z,26.4679,-82.0631,1.855,5.5,1111122 
SCCF RECON,ioos:station:SCCF:11:1,2017-04-07T07:00:00Z,26.4679,-82.0631,1.76,5.38,1111122 
SCCF RECON,ioos:station:SCCF:11:1,2017-04-07T08:00:00Z,26.4679,-82.0631,1.65,5.24,1111122 
SCCF RECON,ioos:station:SCCF:11:1,2017-04-07T09:00:00Z,26.4679,-82.0631,1.53,5.1,1111122 
SCCF RECON,ioos:station:SCCF:11:1,2017-04-07T10:00:00Z,26.4679,-82.0631,1.44,5.04,1111122 
SCCF RECON,ioos:station:SCCF:11:1,2017-04-07T11:00:00Z,26.4679,-82.0631,1.419,5.11,1111122 
SCCF RECON,ioos:station:SCCF:11:1,2017-04-07T12:00:00Z,26.4679,-82.0631,1.457,5.07,1111122 
SCCF RECON,ioos:station:SCCF:11:1,2017-04-07T13:00:00Z,26.4679,-82.0631,1.551,5.3,1111122 
SCCF RECON,ioos:station:SCCF:11:1,2017-04-07T14:00:00Z,26.4679,-82.0631,1.654,5.43,1111122 
SCCF RECON,ioos:station:SCCF:11:1,2017-04-07T15:00:00Z,26.4679,-82.0631,1.77,5.64,1111122 
SCCF RECON,ioos:station:SCCF:11:1,2017-04-07T16:00:00Z,26.4679,-82.0631,1.877,5.73,1111122 
SCCF RECON,ioos:station:SCCF:11:1,2017-04-07T17:00:00Z,26.4679,-82.0631,1.89,5.89,1111122 
SCCF RECON,ioos:station:SCCF:11:1,2017-04-07T18:00:00Z,26.4679,-82.0631,1.84,6.17,1111122 
SCCF RECON,ioos:station:SCCF:11:1,2017-04-07T19:00:00Z,26.4679,-82.0631,1.76,6.66,1111122 
SCCF RECON,ioos:station:SCCF:11:1,2017-04-07T20:00:00Z,26.4679,-82.0631,1.69,6.94,1111122 
SCCF RECON,ioos:station:SCCF:11:1,2017-04-07T21:00:00Z,26.4679,-82.0631,1.61,6.89,1111122 
SCCF RECON,ioos:station:SCCF:11:1,2017-04-07T22:00:00Z,26.4679,-82.0631,1.54,7.06,1111122 
SCCF RECON,ioos:station:SCCF:11:1,2017-04-07T23:00:00Z,26.4679,-82.0631,1.51,6.93,1111122 
SCCF RECON,ioos:station:SCCF:11:1,2017-04-08T00:00:00Z,26.4679,-82.0631,1.535,6.71,1111122 
SCCF RECON,ioos:station:SCCF:11:1,2017-04-08T01:00:00Z,26.4679,-82.0631,1.627,6.33,1111122 
SCCF RECON,ioos:station:SCCF:11:1,2017-04-08T02:00:00Z,26.4679,-82.0631,1.759,6.36,1111122 
SCCF RECON,ioos:station:SCCF:11:1,2017-04-08T03:00:00Z,26.4679,-82.0631,1.87,6.35,1111122 
SCCF RECON,ioos:station:SCCF:11:1,2017-04-08T04:00:00Z,26.4679,-82.0631,1.95,6.3,1111122 
SCCF RECON,ioos:station:SCCF:11:1,2017-04-08T05:00:00Z,26.4679,-82.0631,1.97,6.2,1111122 
SCCF RECON,ioos:station:SCCF:11:1,2017-04-08T06:00:00Z,26.4679,-82.0631,1.92,5.95,1111122 
SCCF RECON,ioos:station:SCCF:11:1,2017-04-08T07:00:00Z,26.4679,-82.0631,1.8,5.73,1111122 
SCCF RECON,ioos:station:SCCF:11:1,2017-04-08T08:00:00Z,26.4679,-82.0631,1.69,5.59,1111122 
SCCF RECON,ioos:station:SCCF:11:1,2017-04-08T09:00:00Z,26.4679,-82.0631,1.58,5.48,1111122 
SCCF RECON,ioos:station:SCCF:11:1,2017-04-08T10:00:00Z,26.4679,-82.0631,1.484,5.4,1111122 
SCCF RECON,ioos:station:SCCF:11:1,2017-04-08T11:00:00Z,26.4679,-82.0631,1.431,5.37,1111122 
SCCF RECON,ioos:station:SCCF:11:1,2017-04-08T12:00:00Z,26.4679,-82.0631,1.44,5.23,1111122 
SCCF RECON,ioos:station:SCCF:11:1,2017-04-08T13:00:00Z,26.4679,-82.0631,1.533,5.4,1111122 
SCCF RECON,ioos:station:SCCF:11:1,2017-04-08T14:00:00Z,26.4679,-82.0631,1.683,5.8,1111122 
SCCF RECON,ioos:station:SCCF:11:1,2017-04-08T15:00:00Z,26.4679,-82.0631,1.83,5.78,1111122 
SCCF RECON,ioos:station:SCCF:11:1,2017-04-08T16:00:00Z,26.4679,-82.0631,1.96,5.95,1111122 
SCCF RECON,ioos:station:SCCF:11:1,2017-04-08T17:00:00Z,26.4679,-82.0631,2.02,6.06,1111122 
SCCF RECON,ioos:station:SCCF:11:1,2017-04-08T18:00:00Z,26.4679,-82.0631,1.99,6.12,1111122 
SCCF RECON,ioos:station:SCCF:11:1,2017-04-08T19:00:00Z,26.4679,-82.0631,1.882,6.69,1111122 
SCCF RECON,ioos:station:SCCF:11:1,2017-04-08T20:00:00Z,26.4679,-82.0631,1.77,6.83,1111122 
SCCF RECON,ioos:station:SCCF:11:1,2017-04-08T21:00:00Z,26.4679,-82.0631,1.681,6.93,1111122 
SCCF RECON,ioos:station:SCCF:11:1,2017-04-08T22:00:00Z,26.4679,-82.0631,1.6,6.82,1111122 
SCCF RECON,ioos:station:SCCF:11:1,2017-04-08T23:00:00Z,26.4679,-82.0631,1.54,6.94,1111122 
SCCF RECON,ioos:station:SCCF:11:1,2017-04-09T00:00:00Z,26.4679,-82.0631,1.524,6.76,1111122 
SCCF RECON,ioos:station:SCCF:11:1,2017-04-09T01:00:00Z,26.4679,-82.0631,1.581,6.68,1111122 
SCCF RECON,ioos:station:SCCF:11:1,2017-04-09T02:00:00Z,26.4679,-82.0631,1.71,6.57,1111122 
SCCF RECON,ioos:station:SCCF:11:1,2017-04-09T03:00:00Z,26.4679,-82.0631,1.83,6.47,1111122 
SCCF RECON,ioos:station:SCCF:11:1,2017-04-09T04:00:00Z,26.4679,-82.0631,1.95,6.51,1111122 
SCCF RECON,ioos:station:SCCF:11:1,2017-04-09T05:00:00Z,26.4679,-82.0631,2.01,6.34,1111122 
SCCF RECON,ioos:station:SCCF:11:1,2017-04-09T06:00:00Z,26.4679,-82.0631,1.98,6.29,1111122 
SCCF RECON,ioos:station:SCCF:11:1,2017-04-09T07:00:00Z,26.4679,-82.0631,1.869,5.97,1111122 
SCCF RECON,ioos:station:SCCF:11:1,2017-04-09T08:00:00Z,26.4679,-82.0631,1.74,5.77,1111122 
SCCF RECON,ioos:station:SCCF:11:1,2017-04-09T09:00:00Z,26.4679,-82.0631,1.64,5.66,1111122 
SCCF RECON,ioos:station:SCCF:11:1,2017-04-09T10:00:00Z,26.4679,-82.0631,1.541,5.58,1111122 
SCCF RECON,ioos:station:SCCF:11:1,2017-04-09T11:00:00Z,26.4679,-82.0631,1.46,5.48,1111122 
SCCF RECON,ioos:station:SCCF:11:1,2017-04-09T12:00:00Z,26.4679,-82.0631,1.428,5.35,1111122 
SCCF RECON,ioos:station:SCCF:11:1,2017-04-09T13:00:00Z,26.4679,-82.0631,1.48,5.53,1111122 
SCCF RECON,ioos:station:SCCF:11:1,2017-04-09T14:00:00Z,26.4679,-82.0631,1.63,5.85,1111122 
SCCF RECON,ioos:station:SCCF:11:1,2017-04-09T15:00:00Z,26.4679,-82.0631,1.773,5.92,1111122 
SCCF RECON,ioos:station:SCCF:11:1,2017-04-09T16:00:00Z,26.4679,-82.0631,1.87,6.07,1111122 
SCCF RECON,ioos:station:SCCF:11:1,2017-04-09T17:00:00Z,26.4679,-82.0631,1.97,6.14,1111122 
SCCF RECON,ioos:station:SCCF:11:1,2017-04-09T18:00:00Z,26.4679,-82.0631,2.04,6.26,1111122 
SCCF RECON,ioos:station:SCCF:11:1,2017-04-09T19:00:00Z,26.4679,-82.0631,2.0,6.27,1111122 
SCCF RECON,ioos:station:SCCF:11:1,2017-04-09T20:00:00Z,26.4679,-82.0631,1.93,6.67,1111122 
SCCF RECON,ioos:station:SCCF:11:1,2017-04-09T21:00:00Z,26.4679,-82.0631,1.82,6.8,1111122 
SCCF RECON,ioos:station:SCCF:11:1,2017-04-09T22:00:00Z,26.4679,-82.0631,1.71,6.87,1111122 
SCCF RECON,ioos:station:SCCF:11:1,2017-04-09T23:00:00Z,26.4679,-82.0631,1.62,6.81,1111122 
SCCF RECON,ioos:station:SCCF:11:1,2017-04-10T00:00:00Z,26.4679,-82.0631,1.58,7.34,1111122 
SCCF RECON,ioos:station:SCCF:11:1,2017-04-10T01:00:00Z,26.4679,-82.0631,1.591,6.45,1111122 
SCCF RECON,ioos:station:SCCF:11:1,2017-04-10T02:00:00Z,26.4679,-82.0631,1.71,6.5,1111122 
SCCF RECON,ioos:station:SCCF:11:1,2017-04-10T03:00:00Z,26.4679,-82.0631,1.84,6.36,1111122 
SCCF RECON,ioos:station:SCCF:11:1,2017-04-10T04:00:00Z,26.4679,-82.0631,1.94,6.0,1111122 
SCCF RECON,ioos:station:SCCF:11:1,2017-04-10T05:00:00Z,26.4679,-82.0631,2.02,5.88,1111122 
SCCF RECON,ioos:station:SCCF:11:1,2017-04-10T06:00:00Z,26.4679,-82.0631,2.07,5.92,1111122 
SCCF RECON,ioos:station:SCCF:11:1,2017-04-10T07:00:00Z,26.4679,-82.0631,2.041,5.96,1111122 
SCCF RECON,ioos:station:SCCF:11:1,2017-04-10T08:00:00Z,26.4679,-82.0631,1.94,5.94,1111122 
SCCF RECON,ioos:station:SCCF:11:1,2017-04-10T09:00:00Z,26.4679,-82.0631,1.824,5.75,1111122 
SCCF RECON,ioos:station:SCCF:11:1,2017-04-10T10:00:00Z,26.4679,-82.0631,1.727,5.64,1111122 
SCCF RECON,ioos:station:SCCF:11:1,2017-04-10T11:00:00Z,26.4679,-82.0631,1.64,5.46,1111122 
SCCF RECON,ioos:station:SCCF:11:1,2017-04-10T12:00:00Z,26.4679,-82.0631,1.58,5.34,1111122 
SCCF RECON,ioos:station:SCCF:11:1,2017-04-10T13:00:00Z,26.4679,-82.0631,1.62,5.43,1111122 
SCCF RECON,ioos:station:SCCF:11:1,2017-04-10T14:00:00Z,26.4679,-82.0631,1.772,5.63,1111122 
SCCF RECON,ioos:station:SCCF:11:1,2017-04-10T15:00:00Z,26.4679,-82.0631,1.954,5.79,1111122 
SCCF RECON,ioos:station:SCCF:11:1,2017-04-10T16:00:00Z,26.4679,-82.0631,2.07,5.91,1111122 
SCCF RECON,ioos:station:SCCF:11:1,2017-04-10T17:00:00Z,26.4679,-82.0631,2.15,5.92,1111122 
SCCF RECON,ioos:station:SCCF:11:1,2017-04-10T18:00:00Z,26.4679,-82.0631,2.17,6.15,1111122 
SCCF RECON,ioos:station:SCCF:11:1,2017-04-10T19:00:00Z,26.4679,-82.0631,2.1,6.19,1111122 
SCCF RECON,ioos:station:SCCF:11:1,2017-04-10T20:00:00Z,26.4679,-82.0631,1.98,6.43,1111122 
SCCF RECON,ioos:station:SCCF:11:1,2017-04-10T21:00:00Z,26.4679,-82.0631,1.86,6.49,1111122 
SCCF RECON,ioos:station:SCCF:11:1,2017-04-10T22:00:00Z,26.4679,-82.0631,1.74,6.48,1111122 
SCCF RECON,ioos:station:SCCF:11:1,2017-04-10T23:00:00Z,26.4679,-82.0631,1.64,6.42,1111122 
SCCF RECON,ioos:station:SCCF:11:1,2017-04-11T00:00:00Z,26.4679,-82.0631,1.55,6.32,1111122 
SCCF RECON,ioos:station:SCCF:11:1,2017-04-11T01:00:00Z,26.4679,-82.0631,1.53,6.1,1111122 
SCCF RECON,ioos:station:SCCF:11:1,2017-04-11T02:00:00Z,26.4679,-82.0631,1.58,5.99,1111122 
SCCF RECON,ioos:station:SCCF:11:1,2017-04-11T03:00:00Z,26.4679,-82.0631,1.7,5.88,1111122 
SCCF RECON,ioos:station:SCCF:11:1,2017-04-11T04:00:00Z,26.4679,-82.0631,1.829,5.8,1111122 
SCCF RECON,ioos:station:SCCF:11:1,2017-04-11T05:00:00Z,26.4679,-82.0631,1.93,5.86,1111122 
SCCF RECON,ioos:station:SCCF:11:1,2017-04-11T06:00:00Z,26.4679,-82.0631,2.0,5.77,1111122 
SCCF RECON,ioos:station:SCCF:11:1,2017-04-11T07:00:00Z,26.4679,-82.0631,2.01,5.62,1111122 
SCCF RECON,ioos:station:SCCF:11:1,2017-04-11T08:00:00Z,26.4679,-82.0631,1.957,5.75,1111122 
SCCF RECON,ioos:station:SCCF:11:1,2017-04-11T09:00:00Z,26.4679,-82.0631,1.84,5.5,1111122 
SCCF RECON,ioos:station:SCCF:11:1,2017-04-11T10:00:00Z,26.4679,-82.0631,1.75,5.37,1111122 
SCCF RECON,ioos:station:SCCF:11:1,2017-04-11T11:00:00Z,26.4679,-82.0631,1.68,5.26,1111122 
SCCF RECON,ioos:station:SCCF:11:1,2017-04-11T12:00:00Z,26.4679,-82.0631,1.64,5.12,1111122 
SCCF RECON,ioos:station:SCCF:11:1,2017-04-11T13:00:00Z,26.4679,-82.0631,1.66,5.13,1111122 
SCCF RECON,ioos:station:SCCF:11:1,2017-04-11T14:00:00Z,26.4679,-82.0631,1.76,5.7,1111122 
SCCF RECON,ioos:station:SCCF:11:1,2017-04-11T15:00:00Z,26.4679,-82.0631,1.91,5.91,1111122 
SCCF RECON,ioos:station:SCCF:11:1,2017-04-11T16:00:00Z,26.4679,-82.0631,2.03,5.97,1111122 
SCCF RECON,ioos:station:SCCF:11:1,2017-04-11T17:00:00Z,26.4679,-82.0631,2.13,5.74,1111122 
SCCF RECON,ioos:station:SCCF:11:1,2017-04-11T18:00:00Z,26.4679,-82.0631,2.2,5.92,1111122 
SCCF RECON,ioos:station:SCCF:11:1,2017-04-11T19:00:00Z,26.4679,-82.0631,2.22,6.31,1111122 
SCCF RECON,ioos:station:SCCF:11:1,2017-04-11T20:00:00Z,26.4679,-82.0631,2.139,6.38,1111122 
SCCF RECON,ioos:station:SCCF:11:1,2017-04-11T21:00:00Z,26.4679,-82.0631,2.0,6.56,1111122 